QFA789 YBBN-YSSY

Flight info

Callsign QFA789
Flight time 1h 10m
Altitude 40000
Route BN H91 IGDAM H652 TESAT
Aircraft A333/H-SDE3GHIJ2J3J5M1RVWXY/LB2D1

Departure

Time 2026-05-05 08:24
Airport Brisbane International Airport (YBBN)

Arrival

Time 2026-05-05 09:34
Airport Sydney Kingsford Smith International Airport (YSSY)
Time Latitude Longitude Altitude Speed Heading
2026-05-05 08:05 -27.38648 153.12240 21 ft 0 kts 309°
2026-05-05 08:12 -27.38650 153.12243 21 ft 3 kts 313°
2026-05-05 08:12 -27.38665 153.12257 25 ft 3 kts 323°
2026-05-05 08:13 -27.38679 153.12269 25 ft 3 kts 323°
2026-05-05 08:13 -27.38686 153.12275 26 ft 3 kts 329°
2026-05-05 08:13 -27.38696 153.12282 24 ft 0 kts 357°
2026-05-05 08:16 -27.38688 153.12283 25 ft 5 kts 11°
2026-05-05 08:16 -27.38680 153.12296 27 ft 1 kts 70°
2026-05-05 08:16 -27.38704 153.12359 24 ft 1 kts 158°
2026-05-05 08:17 -27.38732 153.12366 24 ft 1 kts 185°
2026-05-05 08:17 -27.38759 153.12346 25 ft 14 kts 217°
2026-05-05 08:17 -27.38852 153.12276 26 ft 16 kts 210°
2026-05-05 08:17 -27.38946 153.12219 25 ft 16 kts 206°
2026-05-05 08:18 -27.39050 153.12160 24 ft 19 kts 207°
2026-05-05 08:18 -27.39183 153.12083 26 ft 24 kts 205°
2026-05-05 08:18 -27.39327 153.12000 25 ft 23 kts 207°
2026-05-05 08:18 -27.39469 153.11920 25 ft 23 kts 207°
2026-05-05 08:19 -27.39610 153.11841 26 ft 22 kts 207°
2026-05-05 08:19 -27.39752 153.11759 21 ft 26 kts 207°
2026-05-05 08:19 -27.39911 153.11667 22 ft 7 kts 207°
2026-05-05 08:19 -27.39926 153.11659 25 ft 6 kts 207°
2026-05-05 08:20 -27.39980 153.11628 24 ft 12 kts 207°
2026-05-05 08:20 -27.40069 153.11577 21 ft 17 kts 207°
2026-05-05 08:20 -27.40191 153.11507 24 ft 22 kts 207°
2026-05-05 08:20 -27.40229 153.11495 21 ft 1 kts 154°
2026-05-05 08:21 -27.40267 153.11540 22 ft 7 kts 111°
2026-05-05 08:21 -27.40304 153.11643 25 ft 0 kts 114°
2026-05-05 08:21 -27.40304 153.11644 25 ft 2 kts 114°
2026-05-05 08:22 -27.40322 153.11715 25 ft 8 kts 96°
2026-05-05 08:22 -27.40312 153.11773 22 ft 15 kts 70°
2026-05-05 08:22 -27.40236 153.11848 20 ft 0 kts 27°
2026-05-05 08:23 -27.40235 153.11849 20 ft 6 kts 27°
2026-05-05 08:23 -27.39927 153.12024 20 ft 93 kts 27°
2026-05-05 08:23 -27.39089 153.12506 22 ft 169 kts 27°
2026-05-05 08:23 -27.37889 153.13200 306 ft 211 kts 27°
2026-05-05 08:24 -27.36491 153.14047 958 ft 241 kts 36°
2026-05-05 08:24 -27.35319 153.15296 2074 ft 247 kts 48°
2026-05-05 08:24 -27.34147 153.16781 3307 ft 255 kts 50°
2026-05-05 08:24 -27.32959 153.18295 4490 ft 259 kts 50°
2026-05-05 08:25 -27.31746 153.19806 5675 ft 261 kts 49°
2026-05-05 08:25 -27.30532 153.21292 6728 ft 266 kts 48°
2026-05-05 08:25 -27.29264 153.22845 7729 ft 271 kts 52°
2026-05-05 08:25 -27.28512 153.24745 8679 ft 271 kts 81°
2026-05-05 08:26 -27.28348 153.26862 9668 ft 274 kts 90°
2026-05-05 08:26 -27.28309 153.29025 10436 ft 278 kts 90°
2026-05-05 08:26 -27.28271 153.31232 10937 ft 286 kts 89°
2026-05-05 08:26 -27.28209 153.33508 11462 ft 292 kts 88°
2026-05-05 08:27 -27.28128 153.35783 12047 ft 296 kts 87°
2026-05-05 08:27 -27.28032 153.38076 12591 ft 301 kts 88°
2026-05-05 08:27 -27.28486 153.40390 13097 ft 308 kts 117°
2026-05-05 08:27 -27.29902 153.42190 13464 ft 320 kts 147°
2026-05-05 08:28 -27.32050 153.43113 13609 ft 341 kts 175°
2026-05-05 08:28 -27.34462 153.42910 13804 ft 358 kts 195°
2026-05-05 08:28 -27.36933 153.42329 14229 ft 370 kts 194°
2026-05-05 08:28 -27.39379 153.41463 14895 ft 368 kts 205°
2026-05-05 08:29 -27.41780 153.40387 15615 ft 371 kts 205°
2026-05-05 08:29 -27.44183 153.39381 16286 ft 375 kts 203°
2026-05-05 08:29 -27.46696 153.38449 16908 ft 381 kts 200°
2026-05-05 08:30 -27.51129 153.35498 18101 ft 374 kts 229°
2026-05-05 08:30 -27.53021 153.33442 18696 ft 376 kts 230°
2026-05-05 08:30 -27.54874 153.31471 19277 ft 378 kts 228°
2026-05-05 08:30 -27.56781 153.29471 19860 ft 373 kts 237°
2026-05-05 08:31 -27.58084 153.26982 20471 ft 365 kts 250°
2026-05-05 08:31 -27.59099 153.24349 21102 ft 365 kts 252°
2026-05-05 08:31 -27.60113 153.21713 21667 ft 366 kts 251°
2026-05-05 08:31 -27.61139 153.19115 22253 ft 366 kts 254°
2026-05-05 08:32 -27.62257 153.16519 22790 ft 377 kts 239°
2026-05-05 08:32 -27.64188 153.14418 23346 ft 395 kts 221°
2026-05-05 08:32 -27.66676 153.13022 23789 ft 409 kts 210°
2026-05-05 08:32 -27.69323 153.11784 24189 ft 412 kts 212°
2026-05-05 08:33 -27.71946 153.10429 24590 ft 413 kts 214°
2026-05-05 08:33 -27.74518 153.08955 24995 ft 413 kts 217°
2026-05-05 08:33 -27.77004 153.07432 25383 ft 414 kts 218°
2026-05-05 08:33 -27.79531 153.05822 25751 ft 416 kts 219°
2026-05-05 08:34 -27.82021 153.04200 26138 ft 418 kts 219°
2026-05-05 08:34 -27.84557 153.02542 26511 ft 421 kts 219°
2026-05-05 08:34 -27.87075 153.00905 26880 ft 424 kts 219°
2026-05-05 08:34 -27.89658 152.99239 27254 ft 427 kts 219°
2026-05-05 08:35 -27.92262 152.97572 27620 ft 430 kts 219°
2026-05-05 08:35 -27.94888 152.95902 27986 ft 433 kts 219°
2026-05-05 08:35 -27.97497 152.94252 28339 ft 436 kts 219°
2026-05-05 08:35 -28.00159 152.92579 28692 ft 439 kts 219°
2026-05-05 08:36 -28.02845 152.90901 29033 ft 442 kts 219°
2026-05-05 08:36 -28.05557 152.89215 29385 ft 444 kts 219°
2026-05-05 08:36 -28.08248 152.87554 29723 ft 447 kts 219°
2026-05-05 08:36 -28.11003 152.85860 30071 ft 449 kts 219°
2026-05-05 08:37 -28.13765 152.84171 30404 ft 451 kts 219°
2026-05-05 08:37 -28.16548 152.82470 30674 ft 454 kts 219°
2026-05-05 08:37 -28.19305 152.80782 30921 ft 457 kts 219°
2026-05-05 08:37 -28.22110 152.79064 31177 ft 459 kts 219°
2026-05-05 08:38 -28.24946 152.77326 31420 ft 462 kts 219°
2026-05-05 08:38 -28.27790 152.75581 31661 ft 465 kts 219°
2026-05-05 08:38 -28.30605 152.73852 31906 ft 468 kts 219°
2026-05-05 08:38 -28.33494 152.72075 32158 ft 471 kts 219°
2026-05-05 08:39 -28.36397 152.70294 32411 ft 474 kts 219°
2026-05-05 08:39 -28.39278 152.68532 32709 ft 474 kts 219°
2026-05-05 08:39 -28.42198 152.66755 33041 ft 474 kts 219°
2026-05-05 08:39 -28.45069 152.65013 33366 ft 475 kts 219°
2026-05-05 08:40 -28.48001 152.63238 33642 ft 476 kts 219°
2026-05-05 08:40 -28.50929 152.61469 33920 ft 477 kts 219°
2026-05-05 08:40 -28.53880 152.59689 34210 ft 478 kts 219°
2026-05-05 08:40 -28.56784 152.57944 34545 ft 477 kts 219°
2026-05-05 08:41 -28.59731 152.56199 34955 ft 473 kts 219°
2026-05-05 08:41 -28.62649 152.54501 35416 ft 469 kts 219°
2026-05-05 08:41 -28.65529 152.52846 35802 ft 466 kts 219°
2026-05-05 08:41 -28.68432 152.51194 36141 ft 464 kts 219°
2026-05-05 08:42 -28.71340 152.49556 36391 ft 464 kts 219°
2026-05-05 08:42 -28.74206 152.47946 36619 ft 464 kts 219°
2026-05-05 08:42 -28.77106 152.46312 36892 ft 463 kts 219°
2026-05-05 08:42 -28.79998 152.44685 37229 ft 462 kts 219°
2026-05-05 08:43 -28.82879 152.43073 37586 ft 459 kts 219°
2026-05-05 08:43 -28.85738 152.41484 37917 ft 457 kts 219°
2026-05-05 08:43 -28.88539 152.39938 38199 ft 455 kts 219°
2026-05-05 08:43 -28.91402 152.38364 38432 ft 455 kts 219°
2026-05-05 08:44 -28.94235 152.36810 38654 ft 455 kts 219°
2026-05-05 08:44 -28.97069 152.35262 38856 ft 454 kts 219°
2026-05-05 08:44 -28.99879 152.33745 39011 ft 458 kts 217°
2026-05-05 08:44 -29.02813 152.32504 39166 ft 471 kts 209°
2026-05-05 08:45 -29.06085 152.31702 39347 ft 488 kts 200°
2026-05-05 08:45 -29.09507 152.31325 39557 ft 495 kts 195°
2026-05-05 08:45 -29.12931 152.31190 39763 ft 499 kts 192°
2026-05-05 08:45 -29.16407 152.31183 39948 ft 500 kts 191°
2026-05-05 08:46 -29.19887 152.31228 40055 ft 501 kts 191°
2026-05-05 08:46 -29.26907 152.31309 40075 ft 503 kts 191°
2026-05-05 08:47 -29.33870 152.31323 40076 ft 503 kts 191°
2026-05-05 08:47 -29.40855 152.31292 40070 ft 502 kts 191°
2026-05-05 08:48 -29.47623 152.30523 40079 ft 474 kts 208°
2026-05-05 08:48 -29.50719 152.29332 40076 ft 463 kts 214°
2026-05-05 08:48 -29.53316 152.28101 40073 ft 460 kts 216°
2026-05-05 08:49 -29.59155 152.25107 40081 ft 460 kts 216°
2026-05-05 08:49 -29.65038 152.22202 40084 ft 461 kts 215°
2026-05-05 08:50 -29.71002 152.19423 40090 ft 463 kts 214°
2026-05-05 08:50 -29.76978 152.16745 40123 ft 464 kts 213°
2026-05-05 08:51 -29.83000 152.14070 40087 ft 463 kts 213°
2026-05-05 08:51 -29.88789 152.11492 40091 ft 462 kts 214°
2026-05-05 08:52 -29.93791 152.09256 40093 ft 462 kts 214°
2026-05-05 08:52 -30.00783 152.06122 40108 ft 462 kts 213°
2026-05-05 08:53 -30.05726 152.03903 40100 ft 463 kts 213°
2026-05-05 08:53 -30.11727 152.01206 40097 ft 463 kts 213°
2026-05-05 08:54 -30.17707 151.98516 40095 ft 463 kts 213°
2026-05-05 08:54 -30.23742 151.95799 40099 ft 463 kts 213°
2026-05-05 08:55 -30.29722 151.93103 40092 ft 463 kts 213°
2026-05-05 08:55 -30.35033 151.90703 40109 ft 465 kts 213°
2026-05-05 08:56 -30.41090 151.87964 40093 ft 466 kts 213°
2026-05-05 08:56 -30.47031 151.85275 40099 ft 466 kts 213°
2026-05-05 08:57 -30.53086 151.82534 40094 ft 465 kts 213°
2026-05-05 08:57 -30.58956 151.79870 40094 ft 464 kts 213°
2026-05-05 08:58 -30.65032 151.77108 40096 ft 464 kts 213°
2026-05-05 08:58 -30.70959 151.74413 40103 ft 461 kts 213°
2026-05-05 08:59 -30.76936 151.71698 40095 ft 456 kts 213°
2026-05-05 08:59 -30.82747 151.69043 40096 ft 456 kts 213°
2026-05-05 09:00 -30.88722 151.66308 40095 ft 456 kts 213°
2026-05-05 09:00 -30.94522 151.63653 40103 ft 454 kts 213°
2026-05-05 09:01 -31.00475 151.60927 40109 ft 454 kts 213°
2026-05-05 09:01 -31.06291 151.58255 40106 ft 455 kts 213°
2026-05-05 09:02 -31.12240 151.55523 40125 ft 455 kts 213°
2026-05-05 09:02 -31.18048 151.52850 40106 ft 457 kts 213°
2026-05-05 09:03 -31.23765 151.50217 40109 ft 457 kts 213°
2026-05-05 09:03 -31.29709 151.47477 40108 ft 457 kts 213°
2026-05-05 09:04 -31.35614 151.44751 40124 ft 457 kts 213°
2026-05-05 09:04 -31.41546 151.42008 40110 ft 458 kts 212°
2026-05-05 09:05 -31.47455 151.39272 40110 ft 458 kts 213°
2026-05-05 09:05 -31.53364 151.36535 39958 ft 455 kts 212°
2026-05-05 09:05 -31.56275 151.35193 39788 ft 447 kts 213°
2026-05-05 09:06 -31.59155 151.33867 39670 ft 437 kts 213°
2026-05-05 09:06 -31.64662 151.31324 39428 ft 420 kts 213°
2026-05-05 09:06 -31.67330 151.30084 39183 ft 415 kts 214°
2026-05-05 09:07 -31.70015 151.28829 38856 ft 412 kts 214°
2026-05-05 09:07 -31.72670 151.27584 38406 ft 410 kts 214°
2026-05-05 09:07 -31.75324 151.26338 37998 ft 408 kts 214°
2026-05-05 09:07 -31.77942 151.25113 37645 ft 405 kts 214°
2026-05-05 09:08 -31.80560 151.23888 37304 ft 402 kts 213°
2026-05-05 09:08 -31.83131 151.22686 36932 ft 400 kts 213°
2026-05-05 09:08 -31.85711 151.21479 36589 ft 397 kts 213°
2026-05-05 09:08 -31.88274 151.20280 36250 ft 394 kts 213°
2026-05-05 09:09 -31.90826 151.19085 35922 ft 392 kts 213°
2026-05-05 09:09 -31.93333 151.17912 35591 ft 389 kts 214°
2026-05-05 09:09 -31.95850 151.16732 35277 ft 387 kts 214°
2026-05-05 09:09 -31.98325 151.15572 34960 ft 385 kts 214°
2026-05-05 09:10 -32.00809 151.14408 34667 ft 382 kts 213°
2026-05-05 09:10 -32.03281 151.13248 34393 ft 379 kts 213°
2026-05-05 09:10 -32.05726 151.12101 34084 ft 377 kts 213°
2026-05-05 09:10 -32.08085 151.10992 33743 ft 374 kts 213°
2026-05-05 09:11 -32.10506 151.09853 33414 ft 372 kts 213°
2026-05-05 09:11 -32.12873 151.08739 33081 ft 369 kts 213°
2026-05-05 09:11 -32.15261 151.07614 32770 ft 367 kts 213°
2026-05-05 09:11 -32.17623 151.06502 32442 ft 364 kts 213°
2026-05-05 09:12 -32.19948 151.05407 32128 ft 362 kts 213°
2026-05-05 09:12 -32.22281 151.04307 31837 ft 360 kts 213°
2026-05-05 09:12 -32.24608 151.03210 31564 ft 357 kts 213°
2026-05-05 09:12 -32.26842 151.02156 31283 ft 354 kts 213°
2026-05-05 09:13 -32.29124 151.01078 30995 ft 352 kts 213°
2026-05-05 09:13 -32.31366 151.00018 30696 ft 350 kts 213°
2026-05-05 09:13 -32.33627 150.98948 30412 ft 348 kts 213°
2026-05-05 09:13 -32.35869 150.97886 30099 ft 346 kts 213°
2026-05-05 09:14 -32.38106 150.96828 29769 ft 343 kts 212°
2026-05-05 09:14 -32.40317 150.95782 29456 ft 340 kts 212°
2026-05-05 09:14 -32.42480 150.94759 29149 ft 338 kts 212°
2026-05-05 09:14 -32.44653 150.93729 28842 ft 335 kts 212°
2026-05-05 09:15 -32.46815 150.92704 28543 ft 333 kts 212°
2026-05-05 09:15 -32.48981 150.91724 28238 ft 337 kts 203°
2026-05-05 09:15 -32.51311 150.91337 27933 ft 348 kts 190°
2026-05-05 09:15 -32.53739 150.91465 27670 ft 353 kts 181°
2026-05-05 09:16 -32.56179 150.91887 27389 ft 353 kts 177°
2026-05-05 09:16 -32.58591 150.92429 27130 ft 351 kts 176°
2026-05-05 09:16 -32.60986 150.92990 26845 ft 349 kts 176°
2026-05-05 09:16 -32.63358 150.93524 26579 ft 346 kts 177°
2026-05-05 09:17 -32.65702 150.94015 26334 ft 343 kts 178°
2026-05-05 09:17 -32.68035 150.94470 26122 ft 338 kts 178°
2026-05-05 09:17 -32.70345 150.94898 25890 ft 334 kts 178°
2026-05-05 09:17 -32.72597 150.95301 25632 ft 332 kts 178°
2026-05-05 09:18 -32.74876 150.95701 25374 ft 330 kts 178°
2026-05-05 09:18 -32.77084 150.96087 25132 ft 327 kts 178°
2026-05-05 09:18 -32.79302 150.96476 24893 ft 325 kts 178°
2026-05-05 09:18 -32.81510 150.96865 24652 ft 322 kts 178°
2026-05-05 09:19 -32.83571 150.97229 24447 ft 318 kts 178°
2026-05-05 09:19 -32.85673 150.97607 24398 ft 304 kts 178°
2026-05-05 09:19 -32.87736 150.97980 24097 ft 301 kts 178°
2026-05-05 09:19 -32.89853 150.98351 23503 ft 312 kts 178°
2026-05-05 09:20 -32.92006 150.98723 22910 ft 320 kts 176°
2026-05-05 09:20 -32.94255 150.99115 22332 ft 327 kts 175°
2026-05-05 09:20 -32.96497 150.99511 21818 ft 332 kts 175°
2026-05-05 09:20 -32.98801 150.99921 21318 ft 335 kts 175°
2026-05-05 09:21 -33.01123 151.00338 20852 ft 337 kts 174°
2026-05-05 09:21 -33.03453 151.00757 20403 ft 338 kts 174°
2026-05-05 09:21 -33.05761 151.01173 19973 ft 339 kts 174°
2026-05-05 09:21 -33.08103 151.01594 19561 ft 339 kts 174°
2026-05-05 09:22 -33.10417 151.02009 19173 ft 338 kts 173°
2026-05-05 09:22 -33.12752 151.02428 18784 ft 337 kts 173°
2026-05-05 09:22 -33.15075 151.02845 18381 ft 336 kts 173°
2026-05-05 09:22 -33.17390 151.03261 17946 ft 334 kts 173°
2026-05-05 09:23 -33.19643 151.03666 17545 ft 332 kts 173°
2026-05-05 09:23 -33.21923 151.04076 17132 ft 330 kts 173°
2026-05-05 09:23 -33.24180 151.04488 16731 ft 328 kts 173°
2026-05-05 09:23 -33.26417 151.04912 16339 ft 326 kts 173°
2026-05-05 09:24 -33.28644 151.05344 15955 ft 324 kts 173°
2026-05-05 09:24 -33.30867 151.05779 15571 ft 321 kts 173°
2026-05-05 09:24 -33.33064 151.06211 15200 ft 319 kts 173°
2026-05-05 09:24 -33.35224 151.06636 14833 ft 316 kts 173°
2026-05-05 09:25 -33.37390 151.07061 14468 ft 314 kts 173°
2026-05-05 09:25 -33.39549 151.07484 14115 ft 312 kts 173°
2026-05-05 09:25 -33.41693 151.07903 13739 ft 309 kts 173°
2026-05-05 09:25 -33.43758 151.08307 13360 ft 307 kts 173°
2026-05-05 09:26 -33.45859 151.08717 12977 ft 305 kts 173°
2026-05-05 09:26 -33.47952 151.09125 12598 ft 303 kts 173°
2026-05-05 09:26 -33.50011 151.09528 12212 ft 301 kts 173°
2026-05-05 09:26 -33.52077 151.09932 11844 ft 299 kts 173°
2026-05-05 09:27 -33.53950 151.10299 11503 ft 298 kts 173°
2026-05-05 09:27 -33.55997 151.10701 11138 ft 296 kts 173°
2026-05-05 09:27 -33.58012 151.11096 10774 ft 295 kts 174°
2026-05-05 09:27 -33.60034 151.11492 10423 ft 293 kts 174°
2026-05-05 09:28 -33.62038 151.11886 10071 ft 292 kts 174°
2026-05-05 09:28 -33.64047 151.12281 9671 ft 291 kts 174°
2026-05-05 09:28 -33.66043 151.12672 9292 ft 289 kts 173°
2026-05-05 09:28 -33.67919 151.13040 8940 ft 286 kts 173°
2026-05-05 09:29 -33.69846 151.13421 8702 ft 270 kts 173°
2026-05-05 09:29 -33.71628 151.13777 8472 ft 250 kts 173°
2026-05-05 09:29 -33.73286 151.14108 8223 ft 235 kts 173°
2026-05-05 09:29 -33.74861 151.14420 7948 ft 224 kts 173°
2026-05-05 09:30 -33.76346 151.14713 7662 ft 216 kts 173°
2026-05-05 09:30 -33.77865 151.15006 6950 ft 220 kts 173°
2026-05-05 09:30 -33.79369 151.15294 6238 ft 220 kts 173°
2026-05-05 09:30 -33.80898 151.15600 5392 ft 222 kts 164°
2026-05-05 09:31 -33.82372 151.15891 4728 ft 214 kts 173°
2026-05-05 09:31 -33.83839 151.16139 4049 ft 210 kts 172°
2026-05-05 09:31 -33.85271 151.16426 3381 ft 207 kts 171°
2026-05-05 09:31 -33.86657 151.16740 2759 ft 202 kts 169°
2026-05-05 09:32 -33.88014 151.17084 2133 ft 199 kts 169°
2026-05-05 09:32 -33.89366 151.17449 1504 ft 197 kts 169°
2026-05-05 09:32 -33.90664 151.17777 1086 ft 188 kts 170°
2026-05-05 09:32 -33.91904 151.18052 766 ft 176 kts 173°
2026-05-05 09:33 -33.93058 151.18346 512 ft 163 kts 168°
2026-05-05 09:33 -33.94076 151.18615 294 ft 150 kts 169°
2026-05-05 09:33 -33.95061 151.18856 50 ft 137 kts 168°
2026-05-05 09:33 -33.95667 151.19007 28 ft 85 kts 168°
2026-05-05 09:34 -33.96188 151.19145 31 ft 69 kts 168°
2026-05-05 09:34 -33.96580 151.19215 28 ft 43 kts 186°
2026-05-05 09:34 -33.96677 151.19185 23 ft 1 kts 202°
2026-05-05 09:34 -33.96695 151.19170 23 ft 4 kts 222°
2026-05-05 09:35 -33.96708 151.19146 23 ft 3 kts 247°
2026-05-05 09:35 -33.96688 151.19087 23 ft 6 kts 325°
2026-05-05 09:35 -33.96658 151.19072 26 ft 0 kts 343°
2026-05-05 09:37 -33.96649 151.19070 25 ft 8 kts 346°
2026-05-05 09:37 -33.96606 151.19057 27 ft 10 kts 346°
2026-05-05 09:37 -33.96501 151.19029 24 ft 12 kts 348°
2026-05-05 09:37 -33.96445 151.19015 27 ft 12 kts 348°
2026-05-05 09:38 -33.96365 151.18994 28 ft 11 kts 348°
2026-05-05 09:38 -33.96270 151.18969 30 ft 11 kts 348°
2026-05-05 09:38 -33.96218 151.18956 30 ft 12 kts 348°
2026-05-05 09:38 -33.96124 151.18932 29 ft 15 kts 348°
2026-05-05 09:39 -33.96020 151.18905 30 ft 16 kts 348°
2026-05-05 09:39 -33.95910 151.18877 31 ft 17 kts 348°
2026-05-05 09:39 -33.95787 151.18845 30 ft 19 kts 348°
2026-05-05 09:39 -33.95656 151.18811 29 ft 21 kts 348°
2026-05-05 09:40 -33.95504 151.18772 31 ft 24 kts 348°
2026-05-05 09:40 -33.95341 151.18728 29 ft 24 kts 344°
2026-05-05 09:40 -33.95195 151.18630 29 ft 25 kts 321°
2026-05-05 09:40 -33.95116 151.18469 30 ft 22 kts 271°
2026-05-05 09:41 -33.95126 151.18396 30 ft 0 kts 258°
2026-05-05 09:41 -33.95127 151.18386 30 ft 2 kts 258°
2026-05-05 09:41 -33.95131 151.18369 30 ft 7 kts 257°
2026-05-05 09:41 -33.95134 151.18349 30 ft 0 kts 257°
2026-05-05 09:42 -33.95146 151.18283 29 ft 26 kts 256°
2026-05-05 09:42 -33.95184 151.18072 30 ft 26 kts 259°
2026-05-05 09:42 -33.95178 151.17985 29 ft 3 kts 309°
2026-05-05 09:42 -33.95135 151.17943 29 ft 0 kts 336°
2026-05-05 09:43 -33.95089 151.17935 29 ft 17 kts 352°
2026-05-05 09:43 -33.94920 151.17896 29 ft 31 kts 348°
2026-05-05 09:43 -33.94691 151.17839 29 ft 38 kts 347°
2026-05-05 09:43 -33.94574 151.17808 28 ft 9 kts 348°
2026-05-05 09:44 -33.94478 151.17781 27 ft 18 kts 346°
2026-05-05 09:44 -33.94360 151.17744 26 ft 20 kts 345°
2026-05-05 09:44 -33.94215 151.17699 28 ft 22 kts 346°
2026-05-05 09:44 -33.94070 151.17657 29 ft 23 kts 347°
2026-05-05 09:45 -33.93905 151.17612 24 ft 25 kts 347°
2026-05-05 09:45 -33.93735 151.17569 22 ft 27 kts 348°
2026-05-05 09:45 -33.93554 151.17519 24 ft 28 kts 347°
2026-05-05 09:45 -33.93375 151.17501 28 ft 26 kts 349°
2026-05-05 09:46 -33.93201 151.17458 28 ft 27 kts 348°
2026-05-05 09:46 -33.93099 151.17449 28 ft 5 kts 30°
2026-05-05 09:46 -33.93092 151.17459 29 ft 7 kts 49°
2026-05-05 09:46 -33.93085 151.17472 30 ft 1 kts 57°
2026-05-05 09:47 -33.93035 151.17536 34 ft 15 kts 39°
2026-05-05 09:47 -33.93011 151.17618 34 ft 9 kts 94°
2026-05-05 09:47 -33.93033 151.17704 34 ft 12 kts 115°
2026-05-05 09:47 -33.93060 151.17795 34 ft 13 kts 102°
2026-05-05 09:48 -33.93076 151.17845 34 ft 4 kts 124°
2026-05-05 09:48 -33.93102 151.17859 34 ft 8 kts 164°
2026-05-05 09:48 -33.93143 151.17858 34 ft 0 kts 185°